Location: Bouillancy
(49.1149°N, 2.9308°E)
Time: 08:15:13
(UTC+00:00)

SL-8 R/B - Pass Details

Date: 30 September 2020
Orbit: 656 x 667 km, 48.4° (Epoch: 29 October)

Event Time Altitude Azimuth Distance (km) Brightness Sun altitude
Rises 19:09:17 0° 227° (SW) 2,988 7.5 -17.2°
Reaches altitude 10° 19:11:45 10° 220° (SW) 2,076 6.5 -17.6°
Maximum altitude 19:16:12 39° 152° (SSE) 986 4.2 -18.3°
Enters shadow 19:17:01 36° 127° (SE) 1,043 4.2 -18.4°
